    Orbital elements:
    2015 CP13                                                Earth MOID = 0.1176 AU
    Epoch 2014 Dec. 9.0 TT = JDT 2457000.5                  MPC
    M 357.03151              (2000.0)            P               Q
    n   0.26237271     Peri.    0.26013     +0.36582320     -0.91971055
    a   2.4165194      Node    68.28469     +0.85360897     +0.27056156
    e   0.6610184      Incl.    8.82307     +0.37084378     +0.28448012
    P   3.76           H   19.7           G   0.15           U   8
    Residuals in seconds of arc
    150212 703  0.2-  0.3+    150212 L04  0.2-  0.3-    150213 673  0.3+  1.6+
    150212 703  0.4-  0.2+    150212 L04  0.3-  0.1-    150213 L33 (0.5+  2.9+)
    150212 703  0.5+  0.2+    150212 L33 (1.2+  4.9+)   150213 L33 (0.7+  4.0+)
    150212 703  0.4-  0.4+    150212 L33 (0.6+  3.5+)   150213 L33 (1.1+  4.0+)
    150212 703  0.1-  0.6-    150212 C77  0.3-  0.2+    150213 L33 (0.7+  3.4+)
    150212 703  0.1-  0.6+    150212 C77  0.1-  0.1-    150213 C47  0.3-  0.3-
    150212 703  0.2-  0.7-    150212 033  0.1-  0.2-    150213 C47  0.4-  0.4-
    150212 703  0.7+  0.3-    150212 595  0.3+  0.1-    150214 673  0.1-  0.6+
    150212 703  0.0   1.0+    150212 033  0.2-  0.5-    150214 673  0.5+  1.4+
    150212 703  0.1-  0.0     150212 C23  0.2+  0.4-    150214 I52  0.2-  0.2-
    150212 703  0.2+  0.0     150212 033  0.0   0.3-    150214 I52  0.2-  0.2-
    150212 703  0.2+  0.0     150212 C77  0.0   0.7-    150214 I52  0.2-  0.2-
    150212 703  0.3+  0.2+    150212 C23  0.5-  0.4+    150214 I52  0.2-  0.2-
    150212 703  0.3+  0.1+    150212 595  0.6+  0.1-    150214 900  0.2-  0.7-
    150212 703  0.5-  0.5-    150212 C23  0.0   0.1+    150214 900  0.3-  0.3-
    150212 L04  0.4-  0.1-    150212 C23  0.1-  0.9-    150215 718  0.1-  0.1+
    150212 L04  0.4-  0.3+    150212 595  0.3+  0.8+    150215 718  0.1+  0.6+
    150212 L04  0.5-  0.2-    150212 C23  0.3-  0.7-    150215 718  0.7+  0.1+
    150212 L04  0.3-  0.2+    150213 033  0.3+  0.1-    150215 718  0.3-  0.5+
    150212 033  0.1+  0.3-    150213 033  0.3+  0.7-    150215 O75  0.3-  0.6-
    150212 033  0.1+  0.4-    150213 033  0.5+  0.1+    150215 O75  0.4+  0.5-
    150212 033  0.0   0.3-    150213 H21  0.0   0.2-    150215 O75  0.5+  0.3-
    150212 L33  1.0+  1.7+    150213 H21  0.1-  0.2-    150215 O75  0.5-  0.2+
    150212 L33 (0.6+  3.8+)   150213 H21  0.0   0.2-
    150212 L04  0.1-  0.2-    150213 673  0.8+  1.9+
    
    Ephemeris:
    2015 CP13                a,e,i = 2.42, 0.66, 9                   q = 0.8192
    Date    TT    R. A. (2000) Decl.     Delta      r     Elong.  Phase     V
    2015 01 16    21 36 10.7 +30 10 47   0.1434  0.9144    57.4   115.1    19.8
    ...
    2015 01 31    17 26 30.9 +83 52 09   0.1448  1.0291   103.7    68.4    18.0
    ...
    2015 02 08    10 54 50.5 +71 08 06   0.1895  1.0997   122.4    49.2    18.1
    ...
    2015 02 14    10 28 38.8 +61 21 32   0.2337  1.1552   131.4    39.9    18.4
    2015 02 15    10 26 17.2 +60 00 27   0.2417  1.1646   132.5    38.7    18.5
    2015 02 16    10 24 12.9 +58 43 19   0.2499  1.1741   133.6    37.6    18.6
    ...
    2015 02 22    10 15 48.2 +52 08 40   0.3023  1.2314   138.3    32.3    18.9
    ...
    2015 03 02    10 10 35.8 +45 31 37   0.3805  1.3089   141.0    28.4    19.4
    ...
    2015 03 17    10 09 47.8 +36 48 17   0.5516  1.4549   138.6    26.9    20.4
    
    A. U. Tomatic                (C) Copyright 2015 MPC           M.P.E.C. 2015-C84
    

    Read MPEC 2015-C83 Read MPEC 2015-C85


    MPEC number:

    Enter an MPEC number in one of the following forms:

    • 1997-B01 (the full form)
    • J97B01 (the packed version of the full form)
    • B01 (the abbreviated form)